Location: Unspecified
(0.0000°N, 0.0000°E)
Time: 01:40:51
(UTC+00:00)

Altair - All Passes

Search period start: 22 January 2017 00:00
Search period end: 01 February 2017 00:00
Orbit: 1501 x 1683 km, 47.2° (Epoch: 20 January)

Date Brightness Start Highest point End Pass type
(mag) Time Alt. Az. Time Alt. Az. Time Alt. Az.
22 Jan - 04:13:16 10° NNW 04:22:31 57° NE 04:31:29 10° SE visible
22 Jan - 06:19:18 10° WNW 06:27:00 29° SW 06:34:37 10° S daylight
22 Jan - 14:59:25 10° S 15:06:51 24° SE 15:14:25 10° E daylight
22 Jan - 17:01:45 10° SW 17:11:36 73° NW 17:21:42 10° NNE daylight
22 Jan - 19:12:26 10° WNW 19:16:55 14° NW 19:21:27 10° NNW visible
23 Jan - 03:48:14 10° NNW 03:57:21 51° NE 04:06:13 10° ESE visible
23 Jan - 05:53:45 10° WNW 06:01:50 33° SW 06:09:49 10° SSE daylight
23 Jan - 14:34:45 10° S 14:41:37 21° SE 14:48:37 10° E daylight
23 Jan - 16:36:33 10° SW 16:46:25 80° NW 16:56:33 10° NE daylight
23 Jan - 18:46:08 10° W 18:51:37 16° NW 18:57:10 10° N visible
24 Jan - 03:23:14 10° NNW 03:32:12 45° NE 03:40:53 10° ESE visible
24 Jan - 05:28:16 10° WNW 05:36:40 37° SW 05:44:58 10° SSE visible
24 Jan - 14:10:11 10° S 14:16:23 19° SE 14:22:40 10° E daylight
24 Jan - 16:11:23 10° SW 16:21:15 88° NW 16:31:23 10° NE daylight
24 Jan - 18:20:05 10° W 18:26:19 18° NW 18:32:40 10° N daylight
25 Jan - 02:58:15 10° NNW 03:07:02 40° NE 03:15:32 10° ESE visible
25 Jan - 05:02:49 10° WNW 05:11:32 42° SW 05:20:04 10° SSE visible
25 Jan - 13:45:44 10° SSE 13:51:08 16° SE 13:56:35 10° E daylight
25 Jan - 15:46:16 10° SW 15:56:04 83° SE 16:06:11 10° NE daylight
25 Jan - 17:54:11 10° W 18:01:03 21° NW 18:08:03 10° N daylight
26 Jan - 02:33:19 10° NNW 02:41:52 36° NE 02:50:07 10° ESE visible
26 Jan - 04:37:26 10° WNW 04:46:23 48° SW 04:55:09 10° SSE visible
26 Jan - 13:21:31 10° SSE 13:25:52 14° SE 13:30:16 10° ESE daylight
26 Jan - 15:21:11 10° SW 15:30:54 75° SE 15:40:57 10° NE daylight
26 Jan - 17:28:24 10° W 17:35:48 24° NW 17:43:20 10° N daylight
27 Jan - 02:08:26 10° N 02:16:41 32° NE 02:24:40 10° ESE visible
27 Jan - 04:12:04 10° NW 04:21:15 54° SW 04:30:11 10° SSE visible
27 Jan - 12:57:44 10° SSE 13:00:36 11° SE 13:03:28 10° ESE daylight
27 Jan - 14:56:07 10° SSW 15:05:44 68° SE 15:15:41 10° NE daylight
27 Jan - 17:02:43 10° W 17:10:33 27° NW 17:18:34 10° N daylight
28 Jan - 01:43:35 10° N 01:51:29 28° NE 01:59:09 10° ESE visible
28 Jan - 03:46:45 10° NW 03:56:07 60° SW 04:05:12 10° SSE visible
28 Jan - 14:31:05 10° SSW 14:40:34 61° SE 14:50:22 10° NE daylight
28 Jan - 16:37:08 10° WSW 16:45:19 30° NW 16:53:44 10° N daylight
29 Jan - 01:18:46 10° N 01:26:17 25° NE 01:33:33 10° E visible
29 Jan - 03:21:28 10° NW 03:30:59 68° SW 03:40:11 10° SSE visible
29 Jan - 05:33:58 10° WSW 05:36:01 11° SW 05:38:04 10° SSW visible
29 Jan - 14:06:05 10° SSW 14:15:24 54° SE 14:25:02 10° NE daylight
29 Jan - 16:11:35 10° WSW 16:20:05 34° NW 16:28:51 10° NNE daylight
30 Jan - 00:54:00 10° N 01:01:02 22° NE 01:07:53 10° E visible
30 Jan - 02:56:14 10° NW 03:05:51 76° SW 03:15:08 10° SE visible
30 Jan - 05:06:56 10° WSW 05:10:45 13° SW 05:14:33 10° SSW visible
30 Jan - 13:41:07 10° SSW 13:50:14 48° SE 13:59:39 10° ENE daylight
30 Jan - 15:46:08 10° WSW 15:54:52 38° NW 16:03:55 10° NNE daylight
31 Jan - 00:29:20 10° N 00:35:48 19° NE 00:42:06 10° E night (unlit)
31 Jan - 02:31:01 10° NW 02:40:43 84° SW 02:50:03 10° SE visible
31 Jan - 04:40:34 10° W 04:45:30 15° SW 04:50:25 10° SSW visible
31 Jan - 13:16:11 10° SSW 13:25:04 43° SE 13:34:14 10° ENE daylight
31 Jan - 15:20:42 10° WSW 15:29:41 42° NW 15:38:57 10° NNE daylight
